Powrót do katalogu

COSMOS 2251 DEB

AktywnyLEO
NORAD 34793·DEBRIS·🇷🇺 Russia

Wystrzelony Jun 16, 1993 z Plesetsk Cosmodrome

Loading…

Następne Przeloty (najbliższe 24 godziny)

TLE

ŚwieżeSource: Space-Track

Epoka: Sep 14, 2026, 00:03 UTC

1 34793U 93036AAW 26257.00225531  .00000374  00000-0  12775-3 0  9996
2 34793  74.0006 101.6482 0051488 192.4107 318.5020 14.38994752912897

Śledź COSMOS 2251 DEB w czasie rzeczywistym z AllMySat

Download on the App Store